| time (UTC) | temp C | wind direction | speed KPH | gust KPH | rain 1hr cm | rain 24hr cm | rain mn cm | humidity % | barometer mb |
| 20260506221628 | 13 | 285 | 3.2 | 11.3 | 0.00 | 0.18 | 0.00 | 40 | 1012.2 |
| 20260506220625 | 13 | 267 | 3.2 | 11.3 | 0.00 | 0.20 | 0.00 | 39 | 1012.2 |
| 20260506215552 | 13 | 262 | 4.8 | 11.3 | 0.00 | 0.20 | 0.00 | 40 | 1012.2 |
| 20260506214551 | 13 | 267 | 4.8 | 11.3 | 0.00 | 0.20 | 0.00 | 40 | 1012.2 |
| 20260506213550 | 13 | 281 | 3.2 | 12.9 | 0.00 | 0.20 | 0.00 | 42 | 1012.2 |
| 20260506212548 | 13 | 265 | 4.8 | 12.9 | 0.00 | 0.20 | 0.00 | 40 | 1012.2 |
| 20260506211515 | 13 | 270 | 4.8 | 12.9 | 0.00 | 0.20 | 0.00 | 39 | 1012.2 |
| 20260506210514 | 13 | 264 | 3.2 | 16.1 | 0.00 | 0.20 | 0.00 | 39 | 1012.2 |
| 20260506205512 | 13 | 261 | 6.4 | 16.1 | 0.00 | 0.20 | 0.00 | 39 | 1012.2 |
| 20260506204511 | 13 | 267 | 4.8 | 16.1 | 0.00 | 0.20 | 0.00 | 42 | 1012.2 |
| 20260506203510 | 13 | 293 | 4.8 | 19.3 | 0.00 | 0.23 | 0.00 | 42 | 1012.2 |
| 20260506202507 | 13 | 258 | 4.8 | 19.3 | 0.00 | 0.23 | 0.00 | 41 | 1011.9 |
| 20260506201507 | 13 | 310 | 4.8 | 12.9 | 0.00 | 0.25 | 0.00 | 38 | 1012.2 |
| 20260506200506 | 13 | 325 | 6.4 | 20.9 | 0.00 | 0.28 | 0.00 | 37 | 1012.2 |
| 20260506195504 | 13 | 255 | 3.2 | 20.9 | 0.00 | 0.28 | 0.00 | 39 | 1012.2 |
| 20260506194431 | 13 | 279 | 3.2 | 17.7 | 0.00 | 0.28 | 0.00 | 39 | 1012.2 |
| 20260506193430 | 13 | 278 | 6.4 | 17.7 | 0.00 | 0.28 | 0.00 | 40 | 1012.2 |
| 20260506192428 | 13 | 271 | 4.8 | 16.1 | 0.00 | 0.28 | 0.00 | 40 | 1012.2 |
| 20260506191427 | 12 | 270 | 4.8 | 14.5 | 0.00 | 0.28 | 0.00 | 40 | 1012.5 |
| 20260506190425 | 12 | 290 | 3.2 | 12.9 | 0.00 | 0.28 | 0.00 | 41 | 1012.5 |
| 20260506185424 | 12 | 293 | 3.2 | 9.7 | 0.00 | 0.28 | 0.00 | 41 | 1012.9 |
| 20260506184423 | 12 | 289 | 3.2 | 12.9 | 0.00 | 0.28 | 0.00 | 39 | 1012.5 |
| 20260506183422 | 12 | 266 | 3.2 | 17.7 | 0.00 | 0.28 | 0.00 | 41 | 1012.5 |
| 20260506182420 | 12 | 282 | 4.8 | 17.7 | 0.00 | 0.30 | 0.00 | 39 | 1012.5 |
| 20260506181418 | 12 | 330 | 4.8 | 14.5 | 0.00 | 0.33 | 0.00 | 40 | 1012.2 |
| 20260506180416 | 12 | 274 | 4.8 | 20.9 | 0.00 | 0.33 | 0.00 | 40 | 1012.5 |
| 20260506175415 | 12 | 297 | 3.2 | 24.1 | 0.00 | 0.33 | 0.00 | 42 | 1012.2 |
| 20260506174413 | 12 | 326 | 4.8 | 24.1 | 0.00 | 0.33 | 0.00 | 44 | 1012.2 |
| 20260506173411 | 12 | 318 | 6.4 | 19.3 | 0.00 | 0.33 | 0.00 | 41 | 1012.2 |
| 20260506172307 | 12 | 284 | 4.8 | 19.3 | 0.00 | 0.33 | 0.00 | 42 | 1012.5 |
| 20260506171304 | 12 | 323 | 8.0 | 19.3 | 0.00 | 0.33 | 0.00 | 42 | 1012.5 |
| 20260506170300 | 12 | 317 | 6.4 | 22.5 | 0.00 | 0.33 | 0.00 | 42 | 1012.5 |
| 20260506165227 | 12 | 306 | 4.8 | 22.5 | 0.00 | 0.33 | 0.00 | 42 | 1012.5 |
| 20260506164225 | 12 | 301 | 6.4 | 20.9 | 0.00 | 0.33 | 0.00 | 41 | 1012.9 |
| 20260506163224 | 12 | 330 | 11.3 | 20.9 | 0.00 | 0.33 | 0.00 | 40 | 1012.5 |
| 20260506162223 | 13 | 319 | 8.0 | 17.7 | 0.00 | 0.33 | 0.00 | 41 | 1012.5 |
| 20260506161222 | 13 | 316 | 4.8 | 17.7 | 0.00 | 0.33 | 0.00 | 44 | 1012.5 |
| 20260506160220 | 12 | 300 | 4.8 | 24.1 | 0.00 | 0.33 | 0.00 | 43 | 1012.5 |
| 20260506155218 | 12 | 327 | 12.9 | 25.7 | 0.00 | 0.33 | 0.00 | 45 | 1012.5 |
| 20260506154216 | 12 | 326 | 12.9 | 27.4 | 0.00 | 0.33 | 0.00 | 45 | 1012.5 |
| 20260506153143 | 11 | 331 | 12.9 | 27.4 | 0.00 | 0.33 | 0.00 | 46 | 1012.5 |
| 20260506152141 | 11 | 305 | 6.4 | 17.7 | 0.00 | 0.33 | 0.00 | 49 | 1012.2 |
| 20260506151140 | 11 | 328 | 6.4 | 20.9 | 0.00 | 0.33 | 0.00 | 46 | 1012.2 |
| 20260506150138 | 11 | 341 | 9.7 | 20.9 | 0.00 | 0.33 | 0.00 | 49 | 1012.2 |
| 20260506145105 | 11 | 318 | 4.8 | 19.3 | 0.00 | 0.33 | 0.00 | 50 | 1012.2 |
| 20260506144031 | 11 | 347 | 9.7 | 19.3 | 0.00 | 0.33 | 0.00 | 49 | 1011.9 |
| 20260506143030 | 11 | 1 | 0.0 | 17.7 | 0.00 | 0.33 | 0.00 | 47 | 1011.9 |
| 20260506141924 | 10 | 314 | 6.4 | 16.1 | 0.00 | 0.33 | 0.00 | 49 | 1011.9 |
| 20260506140923 | 10 | 332 | 8.0 | 16.1 | 0.00 | 0.33 | 0.00 | 51 | 1011.9 |
| 20260506135921 | 10 | 321 | 6.4 | 16.1 | 0.00 | 0.33 | 0.00 | 53 | 1011.5 |
| 20260506134919 | 10 | 316 | 9.7 | 16.1 | 0.00 | 0.33 | 0.00 | 53 | 1011.9 |
| 20260506133918 | 10 | 295 | 1.6 | 11.3 | 0.00 | 0.33 | 0.00 | 56 | 1011.5 |
| 20260506132843 | 10 | 292 | 3.2 | 17.7 | 0.00 | 0.33 | 0.00 | 59 | 1011.5 |
| 20260506131841 | 9 | 327 | 8.0 | 17.7 | 0.00 | 0.33 | 0.00 | 57 | 1011.5 |
| 20260506130840 | 9 | 304 | 4.8 | 19.3 | 0.00 | 0.33 | 0.00 | 59 | 1011.2 |
| 20260506125837 | 8 | 344 | 9.7 | 19.3 | 0.00 | 0.33 | 0.00 | 61 | 1011.2 |
| 20260506124804 | 8 | 341 | 6.4 | 14.5 | 0.00 | 0.33 | 0.00 | 66 | 1010.8 |
| 20260506123802 | 8 | 332 | 8.0 | 12.9 | 0.00 | 0.33 | 0.00 | 67 | 1010.8 |
| 20260506122801 | 8 | 331 | 4.8 | 11.3 | 0.00 | 0.33 | 0.00 | 70 | 1010.8 |
| 20260506121759 | 7 | 309 | 3.2 | 6.4 | 0.00 | 0.33 | 0.00 | 74 | 1010.8 |
| 20260506120758 | 7 | 328 | 0.0 | 0.0 | 0.00 | 0.33 | 0.00 | 76 | 1010.5 |
| 20260506115756 | 7 | 333 | 0.0 | 0.0 | 0.00 | 0.33 | 0.00 | 77 | 1010.2 |
| 20260506114754 | 7 | 329 | 0.0 | 0.0 | 0.00 | 0.33 | 0.00 | 77 | 1010.2 |
| 20260506113753 | 7 | 321 | 0.0 | 0.0 | 0.00 | 0.33 | 0.00 | 77 | 1009.8 |
| 20260506112749 | 7 | 290 | 0.0 | 0.0 | 0.00 | 0.33 | 0.00 | 76 | 1009.8 |
| 20260506111716 | 7 | 325 | 0.0 | 0.0 | 0.00 | 0.33 | 0.00 | 77 | 1009.8 |
| 20260506110714 | 7 | 317 | 0.0 | 4.8 | 0.00 | 0.33 | 0.00 | 77 | 1009.8 |
| 20260506105712 | 7 | 335 | 1.6 | 4.8 | 0.00 | 0.33 | 0.00 | 79 | 1009.5 |
| 20260506104712 | 7 | 330 | 3.2 | 4.8 | 0.00 | 0.33 | 0.00 | 79 | 1009.5 |
| 20260506103710 | 7 | 342 | 0.0 | 4.8 | 0.00 | 0.33 | 0.00 | 80 | 1009.1 |
| 20260506102709 | 7 | 291 | 0.0 | 4.8 | 0.00 | 0.33 | 0.00 | 82 | 1009.1 |
| 20260506101707 | 7 | 300 | 0.0 | 0.0 | 0.00 | 0.33 | 0.00 | 85 | 1009.1 |
| 20260506100633 | 7 | 300 | 0.0 | 0.0 | 0.00 | 0.33 | 0.00 | 90 | 1008.8 |
| 20260506095633 | 7 | 259 | 0.0 | 0.0 | 0.00 | 0.33 | 0.00 | 92 | 1008.8 |
| 20260506094631 | 7 | 259 | 0.0 | 0.0 | 0.00 | 0.33 | 0.00 | 93 | 1008.8 |
| 20260506093630 | 7 | 259 | 0.0 | 0.0 | 0.00 | 0.33 | 0.00 | 93 | 1008.8 |
| 20260506092628 | 7 | 259 | 0.0 | 0.0 | 0.00 | 0.33 | 0.00 | 93 | 1008.5 |
| 20260506091627 | 7 | 259 | 0.0 | 0.0 | 0.00 | 0.33 | 0.00 | 93 | 1008.5 |
| 20260506090626 | 7 | 259 | 0.0 | 0.0 | 0.00 | 0.33 | 0.00 | 93 | 1008.8 |
| 20260506085624 | 7 | 259 | 0.0 | 0.0 | 0.00 | 0.33 | 0.00 | 93 | 1008.8 |
| 20260506084623 | 7 | 259 | 0.0 | 0.0 | 0.00 | 0.33 | 0.00 | 93 | 1008.8 |
| 20260506083622 | 7 | 259 | 0.0 | 0.0 | 0.00 | 0.33 | 0.00 | 93 | 1008.5 |
| 20260506082620 | 7 | 259 | 0.0 | 0.0 | 0.00 | 0.33 | 0.00 | 93 | 1008.1 |
| 20260506081619 | 7 | 259 | 0.0 | 0.0 | 0.00 | 0.33 | 0.00 | 93 | 1008.1 |
| 20260506080617 | 7 | 259 | 0.0 | 0.0 | 0.00 | 0.33 | 0.00 | 93 | 1008.5 |
| 20260506072608 | 6 | 266 | 0.0 | 0.0 | 0.00 | 0.36 | 0.00 | 92 | 1007.8 |
| 20260506071606 | 6 | 266 | 0.0 | 1.6 | 0.00 | 0.36 | 0.00 | 92 | 1008.1 |
| 20260506070604 | 6 | 266 | 0.0 | 3.2 | 0.00 | 0.36 | 0.00 | 92 | 1008.5 |
| 20260506061525 | 7 | 271 | 1.6 | 1.6 | 0.00 | 0.36 | 0.00 | 93 | 1008.5 |
| 20260506060523 | 7 | 271 | 1.6 | 1.6 | 0.00 | 0.36 | 0.00 | 93 | 1008.8 |
| 20260506051413 | 6 | 301 | 0.0 | 0.0 | 0.00 | 0.36 | 0.00 | 93 | 1008.5 |
| 20260506050412 | 6 | 301 | 0.0 | 0.0 | 0.00 | 0.36 | 0.00 | 92 | 1008.5 |
| 20260506044336 | 7 | 301 | 0.0 | 1.6 | 0.00 | 0.36 | 0.00 | 92 | 1008.8 |
| 20260506043336 | 6 | 301 | 0.0 | 1.6 | 0.00 | 0.38 | 0.00 | 92 | 1008.8 |
| 20260506042332 | 6 | 301 | 0.0 | 0.0 | 0.00 | 0.38 | 0.00 | 92 | 1008.5 |
| 20260506041331 | 7 | 301 | 0.0 | 0.0 | 0.00 | 0.38 | 0.00 | 92 | 1008.5 |
| 20260506040329 | 7 | 301 | 0.0 | 0.0 | 0.00 | 0.38 | 0.38 | 92 | 1008.5 |
| 20260506035256 | 7 | 301 | 0.0 | 0.0 | 0.00 | 0.38 | 0.38 | 92 | 1008.1 |
| 20260506034254 | 7 | 301 | 0.0 | 1.6 | 0.00 | 0.38 | 0.38 | 92 | 1008.5 |
| 20260506033253 | 6 | 301 | 0.0 | 1.6 | 0.00 | 0.38 | 0.38 | 92 | 1008.5 |
| 20260506032251 | 6 | 301 | 0.0 | 0.0 | 0.00 | 0.38 | 0.38 | 92 | 1008.1 |
| 20260506031215 | 6 | 301 | 0.0 | 0.0 | 0.00 | 0.38 | 0.38 | 92 | 1008.1 |
| 20260506030213 | 6 | 301 | 0.0 | 0.0 | 0.00 | 0.38 | 0.38 | 92 | 1008.5 |
| 20260506025211 | 6 | 315 | 0.0 | 0.0 | 0.00 | 0.38 | 0.38 | 92 | 1008.1 |
| 20260506024209 | 6 | 315 | 0.0 | 0.0 | 0.03 | 0.38 | 0.38 | 91 | 1008.1 |
| 20260506023208 | 6 | 315 | 0.0 | 0.0 | 0.03 | 0.38 | 0.38 | 90 | 1008.1 |
| 20260506022207 | 6 | 315 | 0.0 | 0.0 | 0.03 | 0.38 | 0.38 | 90 | 1008.1 |
| 20260506021205 | 6 | 315 | 0.0 | 0.0 | 0.05 | 0.38 | 0.38 | 89 | 1008.1 |
| 20260506020203 | 6 | 315 | 0.0 | 0.0 | 0.08 | 0.38 | 0.38 | 88 | 1008.1 |
| 20260506015202 | 7 | 315 | 0.0 | 1.6 | 0.10 | 0.38 | 0.38 | 86 | 1008.1 |
| 20260506014159 | 7 | 315 | 0.0 | 9.7 | 0.08 | 0.36 | 0.36 | 85 | 1008.1 |
| 20260506013157 | 7 | 345 | 3.2 | 12.9 | 0.08 | 0.36 | 0.36 | 83 | 1008.1 |
| 20260506012155 | 7 | 324 | 4.8 | 12.9 | 0.08 | 0.36 | 0.36 | 80 | 1008.1 |
| 20260506011152 | 8 | 304 | 3.2 | 8.0 | 0.05 | 0.33 | 0.33 | 77 | 1008.1 |
| 20260506010119 | 8 | 302 | 3.2 | 11.3 | 0.03 | 0.30 | 0.30 | 75 | 1007.8 |
| 20260506005044 | 8 | 332 | 4.8 | 11.3 | 0.00 | 0.28 | 0.28 | 76 | 1007.5 |
| 20260506004042 | 8 | 335 | 0.0 | 0.0 | 0.03 | 0.28 | 0.28 | 81 | 1007.5 |
| 20260506003040 | 8 | 315 | 0.0 | 0.0 | 0.03 | 0.28 | 0.28 | 82 | 1007.5 |
| 20260506002038 | 8 | 282 | 0.0 | 0.0 | 0.03 | 0.28 | 0.28 | 84 | 1007.5 |
| 20260506001036 | 9 | 276 | 0.0 | 0.0 | 0.03 | 0.28 | 0.28 | 86 | 1007.5 |
| 20260506000036 | 9 | 255 | 0.0 | 0.0 | 0.03 | 0.28 | 0.28 | 90 | 1007.5 |
| 20260505235033 | 10 | 257 | 0.0 | 0.0 | 0.03 | 0.28 | 0.28 | 91 | 1007.5 |
| 20260505234031 | 10 | 257 | 0.0 | 0.0 | 0.00 | 0.25 | 0.25 | 91 | 1007.5 |
| 20260505233030 | 10 | 257 | 0.0 | 0.0 | 0.03 | 0.25 | 0.25 | 91 | 1007.5 |
| 20260505231957 | 10 | 257 | 0.0 | 0.0 | 0.05 | 0.25 | 0.25 | 91 | 1007.1 |
| 20260505230956 | 10 | 244 | 0.0 | 0.0 | 0.05 | 0.25 | 0.25 | 90 | 1007.1 |
| 20260505225955 | 10 | 238 | 0.0 | 0.0 | 0.08 | 0.25 | 0.25 | 90 | 1007.5 |
| 20260505224953 | 10 | 252 | 0.0 | 0.0 | 0.08 | 0.25 | 0.25 | 89 | 1007.1 |
| 20260505223951 | 10 | 238 | 0.0 | 0.0 | 0.08 | 0.25 | 0.25 | 88 | 1007.1 |
| 20260505222950 | 10 | 253 | 0.0 | 0.0 | 0.05 | 0.23 | 0.23 | 87 | 1007.1 |